COSMOS 1751

Satellite information

Favourite Embed

Satellite Type and Status

PAYLOADIN ORBIT

Key statistics

Satellite COSMOS 1751 at a glance.

Uptime

14339

Days in orbit

Revolutions

≈ 12.4

Per day

Orbit

LEO

Low Earth Orbit

Inclination

74.0

Latest

Satellite identification and parameters

Extended collection of information and parameters for COSMOS 1751.

Object identification

Identified? True

Debris? False

Object name: COSMOS 1751

International designator: 1986-042D

Object number (NORAD): 16761

Object ID (CCSDS): 16761

Country: COMMONWEALTH OF INDEPENDENT STATES (CIS)

Current information (Y/N): Y

RCS size: MEDIUM

Orbital parameters

Period: 115.673 minutes

Inclination: 74.0193 deg

SMA: 7864.087 km

Apoapsis: 1504.745 km

Periapsis: 1467.159 km

RAAN: 158.5978 deg

Eccentricy: 0.00238971

Argument of periapsis: 163.0138 deg

Mean anomaly: 271.3653 deg

Mean motion: 12.44887994 rev/day

Mean motion (dot): 0.00000001 rev/day2

B* drag term: 0.00011612234 1/REarth

Two-line elements (TLE)

Creation date: Sept. 8, 2025, 3:16 a.m.

Reference frame: TEME

Reference center: EARTH

Epoch: Sept. 7, 2025, 10:06 p.m. UTC

TLE line 0: 0 COSMOS 1751

TLE line 1: 1 16761U 86042D 25250.92120885 .00000001 00000-0 11612-3 0 9995

TLE line 2: 2 16761 74.0193 158.5978 0023897 163.0138 271.3653 12.44887994784036

Live tracking on map

Real-time ground track for satellite COSMOS 1751.

In-orbit conjunctions

There are no conjunctions computed for COSMOS 1751, at the moment. Check back to stay up to date, as we update our databases every day.

Go to all conjunctions

Associated space launch

Military communications satellites

COSMOS 1751 was lifted into orbit during the mission ‘Kosmos-3M | Strela-1M 305-312’, on board a Kosmos-3M space rocket.

The launch took place on June 6, 1986, 3:57 a.m. from 132/1 (132L).

For more information about the launch, click the button.

Launch to space Kosmos-3M | Strela-1M 305-312
Kosmos-3M | Strela-1M 305-312

Agency: N/A

Status: Launch Successful

Launch date: June 6, 1986, 3:57 a.m. UTC

Rocket: Kosmos-3M

Launch pad: 132/1 (132L)

Location: Plesetsk Cosmodrome, Russian Federation

...

Latest news about this satellite

There are no fresh news available about this satellite. Check back as we update our databases every day.


Newsletter sign-up

Weekly statistics, charts and insights to help you stay on top of the space industry.